This is the latest recevied weather packets stored in our database for station/object EA3ANS-1. If no packets are shown the sender has not sent any weather packets the latest 10 day(s).
| Time | Temp. | Humidity | Pressure | Rain* | Wind** | Luminosity | Snow |
|---|---|---|---|---|---|---|---|
| 1787803609 | 25° C | - | 1008.7 hPa | 0 mm | 0.45 m/s, 353° | - | - |
| 1787803005 | 25° C | - | 1009 hPa | 0 mm | 0 m/s | - | - |
| 1787802405 | 25° C | - | 1009.1 hPa | 0 mm | 0.89 m/s, 200° | - | - |
| 1787801806 | 25° C | - | 1008.8 hPa | 0 mm | 0 m/s | - | - |
| 1787801204 | 25.56° C | - | 1008.8 hPa | 0 mm | 1.34 m/s, 167° | - | - |
| 1787800604 | 25.56° C | - | 1008.8 hPa | 0 mm | 0 m/s | - | - |
| 1787800004 | 25.56° C | - | 1009 hPa | 0 mm | 0 m/s | - | - |
| 1787799406 | 25.56° C | - | 1009 hPa | 0 mm | 0 m/s | - | - |
| 1787798803 | 25° C | - | 1008.8 hPa | 0 mm | 0 m/s | - | - |
| 1787798202 | 25.56° C | - | 1009.1 hPa | 0 mm | 0 m/s | - | - |
| 1787797601 | 25.56° C | - | 1009.2 hPa | 0 mm | 0.89 m/s, 146° | - | - |
| 1787796999 | 26.11° C | - | 1009.2 hPa | 0 mm | 0.89 m/s, 117° | - | - |
| 1787796399 | 26.11° C | - | 1009.3 hPa | 0 mm | 1.79 m/s, 359° | - | - |
| 1787795800 | 26.11° C | - | 1009.2 hPa | 0 mm | 2.68 m/s, 300° | - | - |
| 1787795203 | 26.11° C | - | 1009.2 hPa | 0 mm | 1.34 m/s, 7° | - | - |
| 1787794599 | 26.11° C | - | 1009.2 hPa | 0 mm | 4.47 m/s, 0° | - | - |
| 1787793999 | 25.56° C | - | 1009.3 hPa | 0 mm | 1.79 m/s, 48° | - | - |
| 1787793397 | 25.56° C | - | 1009.3 hPa | 0 mm | 1.34 m/s, 23° | - | - |
| 1787792794 | 26.11° C | - | 1009.3 hPa | 0 mm | 2.24 m/s, 353° | - | - |
| 1787792196 | 26.11° C | - | 1009.5 hPa | 0 mm | 2.24 m/s, 8° | - | - |
| 1787791596 | 25.56° C | - | 1009.7 hPa | 0 mm | 2.24 m/s, 323° | - | - |
| 1787790999 | 25.56° C | - | 1009.9 hPa | 0 mm | 2.68 m/s, 315° | - | - |
| 1787790395 | 25.56° C | - | 1010.1 hPa | 0 mm | 2.24 m/s, 330° | - | - |
| 1787789796 | 25.56° C | - | 1010.4 hPa | 0 mm | 0 m/s | - | - |
| 1787789194 | 25.56° C | - | 1010.6 hPa | 0 mm | 0 m/s | - | - |
* Rain latest hour (hover to see other rain measurements)
** Current wind speed in m/s (hover to see current wind gust speed)